Weather History for Kill Devil Hills, NC

Change the Weather History Date:

Tuesday, January 8, 2013

  Actual Average (KMQI) Record (KMQI)
Temperature  
Mean Temperature 48 °F -  
Max Temperature 56 °F 50 °F 69 °F (2005)
Min Temperature 41 °F 37 °F 15 °F (2015)
Degree Days  
Heating Degree Days 16    
Moisture  
Dew Point 42 °F    
Average Humidity 77    
Maximum Humidity 93    
Minimum Humidity 65    
Precipitation  
Precipitation 0.00 in - - ()
Sea Level Pressure  
Sea Level Pressure 30.41 in    
Wind  
Wind Speed 4 mph (ENE)    
Max Wind Speed 12 mph    
Max Gust Speed 16 mph    
Visibility 10 miles    
Events      
Averages and records for this station are not official NWS values.
T = Trace of Precipitation, MM = Missing Value Source: NWS Daily Summary

Daily Weather History Graph

Daily Weather History Graph

Search for Another Location

Airport:

Trip Planner

Search our weather history database for the weather conditions in past years. The results will help you decide how hot, cold, wet, or windy it might be!

Date:

Astronomy

Jan. 08, 2013 Rise Set
Actual Time 7:13 AM EST 5:05 PM EST
Civil Twilight 6:45 AM EST 5:33 PM EST
Nautical Twilight 6:13 AM EST 6:05 PM EST
Astronomical Twilight 5:42 AM EST 6:36 PM EST
Moon 3:44 AM EST (1/8) 2:05 PM EST (1/8)
Length of Visible Light 10h 48m
Length of Day
9h 51m
Waning Crescent, 14% of the Moon is Illuminated
Jan 8
Waning Crescent
Jan 11
New
Jan 18
First Quarter
Jan 26
Full
Feb 3
Last Quarter

Hourly Weather History & Observations

Time (EST) Temp. Windchill Dew Point Humidity Pressure Visibility Wind Dir Wind Speed Gust Speed Precip Events Conditions
12:15 AM 41.4 °F 39.4 °F 33.3 °F 73% 30.43 in 10.0 mi North 3.5 mph - N/A   Clear
12:35 AM 41.4 °F 39.4 °F 33.4 °F 73% 30.42 in 10.0 mi North 3.5 mph - N/A   Clear
12:55 AM 41.7 °F - 33.4 °F 72% 30.42 in 10.0 mi Calm Calm - N/A   Clear
1:15 AM 42.1 °F 40.2 °F 34.0 °F 73% 30.41 in 10.0 mi NNE 3.5 mph - N/A   Clear
1:35 AM 42.4 °F 39.6 °F 34.3 °F 73% 30.41 in 10.0 mi NNE 4.6 mph - N/A   Clear
1:55 AM 42.6 °F 40.9 °F 34.7 °F 74% 30.41 in 10.0 mi NE 3.5 mph - N/A   Clear
2:15 AM 42.6 °F 40.9 °F 34.9 °F 74% 30.42 in 10.0 mi North 3.5 mph - N/A   Clear
2:35 AM 42.4 °F - 35.1 °F 75% 30.42 in 10.0 mi Calm Calm - N/A   Clear
2:55 AM 42.4 °F 40.7 °F 35.2 °F 76% 30.41 in 10.0 mi NNE 3.5 mph - N/A   Clear
3:15 AM 42.8 °F 40.1 °F 35.2 °F 75% 30.41 in 10.0 mi NNE 4.6 mph - N/A   Clear
3:35 AM 43.0 °F 41.3 °F 35.6 °F 75% 30.40 in 10.0 mi NNE 3.5 mph - N/A   Clear
3:55 AM 43.0 °F 41.3 °F 35.8 °F 76% 30.40 in 10.0 mi NNE 3.5 mph - N/A   Clear
4:15 AM 43.0 °F 40.3 °F 35.8 °F 76% 30.40 in 10.0 mi NNE 4.6 mph - N/A   Clear
4:35 AM 43.0 °F 40.3 °F 36.3 °F 77% 30.40 in 10.0 mi NNE 4.6 mph - N/A   Clear
4:55 AM 43.0 °F 40.3 °F 36.7 °F 78% 30.40 in 10.0 mi NE 4.6 mph - N/A   Clear
5:15 AM 43.2 °F 41.5 °F 36.9 °F 78% 30.40 in 10.0 mi NNE 3.5 mph - N/A   Clear
5:35 AM 43.2 °F 40.5 °F 37.4 °F 80% 30.41 in 10.0 mi NE 4.6 mph - N/A   Clear
5:55 AM 43.2 °F 41.5 °F 37.6 °F 81% 30.42 in 10.0 mi NE 3.5 mph - N/A   Clear
6:15 AM 43.2 °F - 37.9 °F 82% 30.42 in 10.0 mi Calm Calm - N/A   Clear
6:35 AM 43.3 °F 41.7 °F 38.5 °F 83% 30.43 in 10.0 mi ENE 3.5 mph - N/A   Clear
6:55 AM 43.7 °F 42.1 °F 38.7 °F 82% 30.43 in 10.0 mi ENE 3.5 mph - N/A   Clear
7:15 AM 43.7 °F 42.1 °F 39.0 °F 84% 30.43 in 10.0 mi NE 3.5 mph - N/A   Clear
7:55 AM 45.0 °F 42.6 °F 40.5 °F 84% 30.45 in 10.0 mi ENE 4.6 mph - N/A   Scattered Clouds
8:15 AM 46.0 °F 44.8 °F 41.2 °F 83% 30.45 in 10.0 mi ENE 3.5 mph - N/A   Clear
8:35 AM 46.9 °F - 41.9 °F 83% 30.46 in 10.0 mi ENE 3.5 mph - N/A   Clear
8:55 AM 47.3 °F - 42.1 °F 82% 30.47 in 10.0 mi ENE 3.5 mph - N/A   Scattered Clouds
9:15 AM 48.4 °F - 42.6 °F 80% 30.47 in 10.0 mi NNE 3.5 mph - N/A   Scattered Clouds
9:35 AM 49.3 °F - 42.6 °F 78% 30.47 in 10.0 mi ENE 5.8 mph - N/A   Clear
9:55 AM 49.8 °F - 42.8 °F 77% 30.47 in 10.0 mi ENE 5.8 mph - N/A   Scattered Clouds
10:15 AM 50.7 °F - 43.3 °F 76% 30.46 in 10.0 mi East 3.5 mph - N/A   Scattered Clouds
10:35 AM 49.8 °F - 43.2 °F 78% 30.47 in 10.0 mi East 5.8 mph - N/A   Scattered Clouds
10:55 AM 49.8 °F - 43.5 °F 79% 30.45 in 10.0 mi East 4.6 mph - N/A   Mostly Cloudy
11:15 AM 50.4 °F - 43.7 °F 78% 30.45 in 10.0 mi East 5.8 mph - N/A   Mostly Cloudy
11:35 AM 51.1 °F - 43.7 °F 76% 30.43 in 10.0 mi East 6.9 mph - N/A   Mostly Cloudy
11:55 AM 52.3 °F - 43.7 °F 72% 30.41 in 10.0 mi East 8.1 mph - N/A   Scattered Clouds
12:15 PM 53.6 °F - 44.1 °F 70% 30.40 in 10.0 mi ESE 10.4 mph - N/A   Clear
12:35 PM 54.1 °F - 44.2 °F 69% 30.39 in 10.0 mi ESE 8.1 mph 16.1 mph N/A   Clear
12:55 PM 54.5 °F - 45.0 °F 70% 30.38 in 10.0 mi ESE 11.5 mph - N/A   Clear
1:15 PM 54.1 °F - 45.3 °F 72% 30.37 in 10.0 mi ESE 9.2 mph 16.1 mph N/A   Clear
1:55 PM 54.7 °F - 46.6 °F 74% 30.36 in 10.0 mi ESE 8.1 mph - N/A   Clear
2:15 PM 55.2 °F - 47.1 °F 74% 30.36 in 10.0 mi ESE 9.2 mph - N/A   Clear
2:55 PM 55.2 °F - 47.5 °F 75% 30.36 in 10.0 mi SE 9.2 mph - N/A   Clear
3:15 PM 55.4 °F - 48.0 °F 76% 30.37 in 10.0 mi SE 9.2 mph - N/A   Clear
3:35 PM 55.0 °F - 47.8 °F 77% 30.36 in 10.0 mi SE 6.9 mph - N/A   Clear
3:55 PM 55.8 °F - 47.3 °F 73% 30.37 in 10.0 mi SSE 5.8 mph - N/A   Clear
4:15 PM 56.3 °F - 45.9 °F 68% 30.38 in 10.0 mi SSE 4.6 mph - N/A   Clear
4:35 PM 56.5 °F - 44.8 °F 65% 30.38 in 10.0 mi SE 6.9 mph - N/A   Clear
4:55 PM 55.6 °F - 44.8 °F 67% 30.38 in 10.0 mi SSE 5.8 mph - N/A   Clear
5:15 PM 54.5 °F - 45.1 °F 71% 30.37 in 10.0 mi SE 6.9 mph - N/A   Clear
5:35 PM 53.6 °F - 45.7 °F 75% 30.38 in 10.0 mi SSE 3.5 mph - N/A   Clear
5:55 PM 52.9 °F - 45.3 °F 75% 30.38 in 10.0 mi Calm Calm - N/A   Scattered Clouds
6:15 PM 52.5 °F - 45.1 °F 76% 30.39 in 10.0 mi Calm Calm - N/A   Scattered Clouds
6:35 PM 52.9 °F - 44.2 °F 72% 30.39 in 10.0 mi Calm Calm - N/A   Scattered Clouds
6:55 PM 50.9 °F - 44.4 °F 78% 30.39 in 10.0 mi Calm Calm - N/A   Clear
7:15 PM 54.0 °F - 43.0 °F 66% 30.39 in 10.0 mi SSE 3.5 mph - N/A   Scattered Clouds
7:35 PM 54.1 °F - 43.3 °F 67% 30.39 in 10.0 mi SE 8.1 mph - N/A   Mostly Cloudy
7:55 PM 55.4 °F - 45.5 °F 69% 30.40 in 10.0 mi NW 5.8 mph - N/A   Mostly Cloudy
8:15 PM 52.7 °F - 45.0 °F 75% 30.39 in 10.0 mi NW 4.6 mph - N/A   Scattered Clouds
8:55 PM 49.8 °F - 44.2 °F 81% 30.40 in 10.0 mi Calm Calm - N/A   Clear
9:15 PM 48.7 °F - 44.1 °F 84% 30.39 in 10.0 mi Calm Calm - N/A   Clear
9:35 PM 47.5 °F - 43.7 °F 87% 30.39 in 10.0 mi Calm Calm - N/A   Clear
9:55 PM 46.4 °F - 43.7 °F 90% 30.39 in 10.0 mi Calm Calm - N/A   Clear
10:15 PM 46.4 °F - 44.1 °F 92% 30.38 in 10.0 mi Calm Calm - N/A   Clear
10:35 PM 46.4 °F - 44.1 °F 92% 30.38 in 10.0 mi Calm Calm - N/A   Clear
11:15 PM 46.6 °F - 44.8 °F 93% 30.39 in 10.0 mi Calm Calm - N/A   Clear
11:35 PM 46.2 °F - 44.4 °F 93% 30.39 in 10.0 mi Calm Calm - N/A   Clear